Location: Copeville
(33.0796°N, 96.4155°W)
Time: 22:46:04
(UTC+00:00)

NOAA 19 - Pass Details

Date: 08 April 2023
Orbit: 840 x 859 km, 99.1° (Epoch: 28 May)

Event Time Altitude Azimuth Distance (km) Brightness Sun altitude
Exits shadow 03:23:45 15° 219° (SW) 2,140 7.3 -30.7°
Maximum altitude 03:27:00 25° 263° (W) 1,659 7.1 -31.3°
Drops below altitude 10° 03:31:23 10° 317° (NW) 2,463 8.4 -32.0°
Sets 03:34:12 0° 331° (NNW) 3,400 9.2 -32.5°
